FW4330 Toide JP current weather conditions

sailwx.info

Wind from 090 at 1 knots gusting 2

Air temperature 27.8° C
Dewpoint 13.7° C

Last reported at 2020-Sep-19 01:45 UTC.
Time now 2020-Sep-19 02:52 UTC

Location: N 36°41' E 136°59'.
View on Google Maps.

See reports from other nearby stations

  
Tides and Currents Weather Stations Pressure Air Temp Water Temp Dewpoint Dewpoint Depression Visibility Wind Speed Wind Dir Waves Ship Positions
date/time (UTC)wind fromknots sea level pressurealtimeterstation pressurevisibilityair tempwater tempwave heightnotes
2020-Sep-19 01:45 090 1 gusting 2 27.8
2020-Sep-19 01:15 28.9
2020-Sep-19 00:45 090 28.3
2020-Sep-19 00:15 090 1 gusting 1 26.7
2020-Sep-18 23:45 315 26.7
2020-Sep-18 23:15 090 22.8
2020-Sep-18 22:45 270 21.7
2020-Sep-18 22:15 270 21.1
2020-Sep-18 21:45 090 20.6
2020-Sep-18 21:15 090 20.0
2020-Sep-18 20:45 270 20.0
2020-Sep-18 20:15 180 20.0
2020-Sep-18 19:45 180 20.0
2020-Sep-18 19:15 090 20.0
2020-Sep-18 18:45 180 20.0
2020-Sep-18 18:15 270 20.0
2020-Sep-18 17:45 20.6
2020-Sep-18 17:15 135 20.6
2020-Sep-18 16:45 270 20.0
2020-Sep-18 16:15 270 20.6
2020-Sep-18 15:45 270 20.6
2020-Sep-18 15:15 225 20.6
2020-Sep-18 14:45 270 20.6
2020-Sep-18 13:45 270 20.6
2020-Sep-18 13:15 090 20.6
2020-Sep-18 12:45 270 20.6
2020-Sep-18 12:15 20.6
2020-Sep-18 11:45 180 20.6
2020-Sep-18 11:15 270 21.1
2020-Sep-18 10:45 270 21.1
2020-Sep-18 10:15 270 21.1
2020-Sep-18 09:45 270 0 gusting 1 20.6
2020-Sep-18 09:15 270 20.6
2020-Sep-18 08:45 270 20.6
2020-Sep-18 08:15 090 21.1
2020-Sep-18 07:45 270 21.1
2020-Sep-18 07:15 270 21.7
2020-Sep-18 06:45 315 21.7
2020-Sep-18 06:15 135 21.1
2020-Sep-18 05:45 21.1
2020-Sep-18 05:15 090 21.7
2020-Sep-18 04:45 270 21.7
2020-Sep-18 04:15 270 21.7
2020-Sep-18 03:45 270 21.7
2020-Sep-18 03:15 180 22.2
2020-Sep-18 02:45 270 22.2
2020-Sep-18 02:15 180 21.7
2020-Sep-18 01:45 180 22.2
2020-Sep-18 01:15 270 22.2
2020-Sep-18 00:45 270 22.2
2020-Sep-18 00:15 270 22.2
2020-Sep-17 23:45 270 21.7
2020-Sep-17 23:15 090 22.2
2020-Sep-17 22:45 270 22.2
2020-Sep-17 22:15 090 22.2
2020-Sep-17 21:45 090 22.2
2020-Sep-17 21:15 270 22.2
2020-Sep-17 20:45 090 22.2
2020-Sep-17 20:15 180 22.8
2020-Sep-17 19:45 180 23.3
2020-Sep-17 19:15 180 23.3
2020-Sep-17 18:45 270 23.3
2020-Sep-17 18:15 090 0 gusting 1 23.3
2020-Sep-17 17:45 180 23.9
2020-Sep-17 17:15 045 23.9
2020-Sep-17 16:45 090 23.9
2020-Sep-17 16:15 180 23.3
2020-Sep-17 15:45 270 23.9
2020-Sep-17 15:15 180 23.9
2020-Sep-17 14:45 180 23.3
2020-Sep-17 14:15 090 0 gusting 1 23.3
2020-Sep-17 13:45 090 23.3
2020-Sep-17 13:15 23.9
2020-Sep-17 12:45 225 23.9
2020-Sep-17 12:15 270 23.9
2020-Sep-17 11:45 270 23.9
2020-Sep-17 11:15 090 23.9
2020-Sep-17 10:45 270 23.9
2020-Sep-17 10:15 180 23.9
2020-Sep-17 09:45 180 24.4
2020-Sep-17 09:15 090 24.4
2020-Sep-17 08:45 180 24.4
2020-Sep-17 08:15 090 24.4
2020-Sep-17 07:45 24.4
2020-Sep-17 07:15 090 1 gusting 2 25.6
2020-Sep-17 06:45 29.4
2020-Sep-17 06:15 30.6
2020-Sep-17 05:45 090 31.1
2020-Sep-17 05:15 180 31.7
2020-Sep-17 04:45 270 31.7
2020-Sep-17 04:15 270 1 gusting 1 32.8
2020-Sep-17 03:45 225 0 gusting 1 32.2
2020-Sep-17 03:15 090 0 gusting 1 32.2
2020-Sep-17 02:45 30.0
2020-Sep-17 02:15 090 30.0